| time (UTC) | temp F | wind direction | speed MPH | gust MPH | rain 1hr in | rain 24hr in | rain mn in | humidity % | barometer mb |
| 20260904231059 | 93 | 101 | 10.0 | 15.0 | 0.00 | 0.00 | 0.00 | 35 | 926.2 |
| 20260904230559 | 93 | 101 | 8.0 | 15.0 | 0.00 | 0.00 | 0.00 | 36 | 926.2 |
| 20260904230058 | 92 | 105 | 7.0 | 15.0 | 0.00 | 0.00 | 0.00 | 37 | 926.3 |
| 20260904225557 | 92 | 108 | 9.0 | 16.0 | 0.00 | 0.00 | 0.00 | 36 | 926.3 |
| 20260904225059 | 93 | 104 | 9.0 | 16.0 | 0.00 | 0.00 | 0.00 | 36 | 926.4 |
| 20260904224602 | 92 | 121 | 10.0 | 18.0 | 0.00 | 0.00 | 0.00 | 36 | 926.3 |
| 20260904224056 | 92 | 119 | 9.0 | 16.0 | 0.00 | 0.00 | 0.00 | 36 | 926.4 |
| 20260904223551 | 92 | 115 | 11.0 | 16.0 | 0.00 | 0.00 | 0.00 | 37 | 926.4 |
| 20260904223053 | 92 | 116 | 12.0 | 19.0 | 0.00 | 0.00 | 0.00 | 35 | 926.4 |
| 20260904222049 | 92 | 129 | 10.0 | 19.0 | 0.00 | 0.00 | 0.00 | 35 | 926.6 |
| 20260904221546 | 92 | 96 | 11.0 | 18.0 | 0.00 | 0.00 | 0.00 | 34 | 926.6 |
| 20260904221045 | 92 | 96 | 11.0 | 21.0 | 0.00 | 0.00 | 0.00 | 35 | 926.5 |
| 20260904220544 | 91 | 123 | 12.0 | 21.0 | 0.00 | 0.00 | 0.00 | 34 | 926.7 |
| 20260904220107 | 91 | 126 | 9.0 | 21.0 | 0.00 | 0.00 | 0.00 | 34 | 926.7 |
| 20260904215542 | 92 | 118 | 15.0 | 21.0 | 0.00 | 0.00 | 0.00 | 35 | 926.7 |
| 20260904215045 | 91 | 121 | 12.0 | 21.0 | 0.00 | 0.00 | 0.00 | 35 | 926.6 |
| 20260904214541 | 91 | 121 | 12.0 | 21.0 | 0.00 | 0.00 | 0.00 | 36 | 926.7 |
| 20260904214041 | 92 | 125 | 12.0 | 20.0 | 0.00 | 0.00 | 0.00 | 35 | 926.7 |
| 20260904213542 | 91 | 131 | 12.0 | 22.0 | 0.00 | 0.00 | 0.00 | 36 | 926.7 |
| 20260904213038 | 91 | 130 | 14.0 | 22.0 | 0.00 | 0.00 | 0.00 | 36 | 926.7 |
| 20260904212036 | 91 | 127 | 14.0 | 22.0 | 0.00 | 0.00 | 0.00 | 36 | 926.8 |
| 20260904211548 | 90 | 128 | 15.0 | 24.0 | 0.00 | 0.00 | 0.00 | 37 | 926.9 |
| 20260904211035 | 90 | 139 | 13.0 | 24.0 | 0.00 | 0.00 | 0.00 | 38 | 926.8 |
| 20260904210533 | 90 | 144 | 15.0 | 23.0 | 0.00 | 0.00 | 0.00 | 39 | 926.9 |
| 20260904210037 | 89 | 130 | 15.0 | 24.0 | 0.00 | 0.00 | 0.00 | 39 | 926.9 |
| 20260904205531 | 89 | 123 | 14.0 | 24.0 | 0.00 | 0.00 | 0.00 | 40 | 926.9 |
| 20260904205034 | 89 | 130 | 15.0 | 24.0 | 0.00 | 0.00 | 0.00 | 40 | 927.0 |
| 20260904204535 | 89 | 97 | 15.0 | 22.0 | 0.00 | 0.00 | 0.00 | 40 | 926.9 |
| 20260904204030 | 89 | 100 | 12.0 | 23.0 | 0.00 | 0.00 | 0.00 | 41 | 926.9 |
| 20260904203534 | 89 | 128 | 16.0 | 23.0 | 0.00 | 0.00 | 0.00 | 41 | 927.0 |
| 20260904203035 | 88 | 132 | 15.0 | 22.0 | 0.00 | 0.00 | 0.00 | 41 | 927.0 |
| 20260904202027 | 88 | 132 | 17.0 | 26.0 | 0.00 | 0.00 | 0.00 | 43 | 927.0 |
| 20260904201526 | 88 | 115 | 17.0 | 26.0 | 0.00 | 0.00 | 0.00 | 44 | 927.0 |
| 20260904201026 | 87 | 117 | 16.0 | 26.0 | 0.00 | 0.00 | 0.00 | 45 | 927.1 |
| 20260904200525 | 87 | 92 | 16.0 | 25.0 | 0.00 | 0.00 | 0.00 | 45 | 927.0 |
| 20260904200032 | 87 | 125 | 16.0 | 25.0 | 0.00 | 0.00 | 0.00 | 46 | 926.9 |
| 20260904195525 | 87 | 130 | 18.0 | 25.0 | 0.00 | 0.00 | 0.00 | 46 | 927.1 |
| 20260904195023 | 87 | 127 | 19.0 | 25.0 | 0.00 | 0.00 | 0.00 | 46 | 927.1 |
| 20260904194544 | 86 | 105 | 14.0 | 25.0 | 0.00 | 0.00 | 0.00 | 48 | 927.1 |
| 20260904194025 | 86 | 122 | 16.0 | 29.0 | 0.00 | 0.00 | 0.00 | 46 | 927.1 |
| 20260904193524 | 86 | 105 | 19.0 | 29.0 | 0.00 | 0.00 | 0.00 | 48 | 927.1 |
| 20260904193022 | 86 | 130 | 19.0 | 26.0 | 0.00 | 0.00 | 0.00 | 47 | 927.2 |
| 20260904192020 | 85 | 107 | 18.0 | 28.0 | 0.00 | 0.00 | 0.00 | 48 | 927.2 |
| 20260904191528 | 85 | 132 | 20.0 | 28.0 | 0.00 | 0.00 | 0.00 | 48 | 927.4 |
| 20260904191019 | 85 | 131 | 17.0 | 26.0 | 0.00 | 0.00 | 0.00 | 48 | 927.4 |
| 20260904190518 | 85 | 122 | 17.0 | 26.0 | 0.00 | 0.00 | 0.00 | 49 | 927.5 |
| 20260904190017 | 84 | 137 | 17.0 | 27.0 | 0.00 | 0.00 | 0.00 | 49 | 927.5 |
| 20260904185517 | 84 | 134 | 19.0 | 27.0 | 0.00 | 0.00 | 0.00 | 50 | 927.7 |
| 20260904185017 | 84 | 113 | 21.0 | 27.0 | 0.00 | 0.00 | 0.00 | 49 | 927.8 |
| 20260904184518 | 84 | 135 | 15.0 | 25.0 | 0.00 | 0.00 | 0.00 | 50 | 927.7 |
| 20260904184014 | 83 | 125 | 16.0 | 28.0 | 0.00 | 0.00 | 0.00 | 50 | 927.8 |
| 20260904183513 | 83 | 125 | 18.0 | 28.0 | 0.00 | 0.00 | 0.00 | 50 | 927.9 |
| 20260904183012 | 83 | 113 | 18.0 | 27.0 | 0.00 | 0.00 | 0.00 | 50 | 928.0 |
| 20260904182011 | 83 | 121 | 20.0 | 28.0 | 0.00 | 0.00 | 0.00 | 50 | 928.1 |
| 20260904181511 | 83 | 111 | 19.0 | 28.0 | 0.00 | 0.00 | 0.00 | 49 | 928.1 |
| 20260904181010 | 83 | 123 | 17.0 | 30.0 | 0.00 | 0.00 | 0.00 | 49 | 928.2 |
| 20260904180509 | 83 | 137 | 20.0 | 30.0 | 0.00 | 0.00 | 0.00 | 48 | 928.1 |
| 20260904180008 | 83 | 112 | 21.0 | 31.0 | 0.00 | 0.00 | 0.00 | 48 | 928.2 |
| 20260904175508 | 83 | 107 | 18.0 | 31.0 | 0.00 | 0.00 | 0.00 | 46 | 928.3 |
| 20260904175007 | 83 | 129 | 20.0 | 32.0 | 0.00 | 0.00 | 0.00 | 46 | 928.3 |
| 20260904174507 | 82 | 130 | 19.0 | 33.0 | 0.00 | 0.00 | 0.00 | 48 | 928.3 |
| 20260904174005 | 82 | 146 | 21.0 | 33.0 | 0.00 | 0.00 | 0.00 | 47 | 928.3 |
| 20260904173504 | 82 | 140 | 19.0 | 29.0 | 0.00 | 0.00 | 0.00 | 51 | 928.3 |
| 20260904173005 | 81 | 110 | 22.0 | 29.0 | 0.00 | 0.00 | 0.00 | 49 | 928.4 |
| 20260904172002 | 80 | 120 | 19.0 | 31.0 | 0.00 | 0.00 | 0.00 | 54 | 928.5 |
| 20260904171500 | 80 | 115 | 20.0 | 30.0 | 0.00 | 0.00 | 0.00 | 58 | 928.5 |
| 20260904171103 | 79 | 111 | 21.0 | 28.0 | 0.00 | 0.00 | 0.00 | 57 | 928.6 |
| 20260904170558 | 79 | 115 | 19.0 | 29.0 | 0.00 | 0.00 | 0.00 | 58 | 928.7 |
| 20260904170058 | 78 | 132 | 21.0 | 29.0 | 0.00 | 0.00 | 0.00 | 60 | 928.8 |
| 20260904165557 | 78 | 111 | 18.0 | 28.0 | 0.00 | 0.00 | 0.00 | 60 | 929.0 |
| 20260904165056 | 78 | 113 | 17.0 | 27.0 | 0.00 | 0.00 | 0.00 | 60 | 929.1 |
| 20260904164555 | 78 | 114 | 17.0 | 30.0 | 0.00 | 0.00 | 0.00 | 61 | 929.1 |
| 20260904164053 | 77 | 121 | 20.0 | 30.0 | 0.00 | 0.00 | 0.00 | 62 | 929.2 |
| 20260904163551 | 77 | 107 | 18.0 | 27.0 | 0.00 | 0.00 | 0.00 | 65 | 929.2 |
| 20260904163103 | 76 | 123 | 16.0 | 25.0 | 0.00 | 0.00 | 0.00 | 67 | 929.3 |
| 20260904162050 | 76 | 128 | 17.0 | 27.0 | 0.00 | 0.00 | 0.00 | 67 | 929.3 |
| 20260904161549 | 76 | 108 | 16.0 | 27.0 | 0.00 | 0.00 | 0.00 | 67 | 929.4 |
| 20260904161050 | 76 | 123 | 15.0 | 25.0 | 0.00 | 0.00 | 0.00 | 68 | 929.4 |
| 20260904160547 | 76 | 360 | 17.0 | 25.0 | 0.00 | 0.00 | 0.00 | 70 | 929.4 |
| 20260904160048 | 75 | 360 | 16.0 | 25.0 | 0.00 | 0.00 | 0.00 | 69 | 929.4 |
| 20260904155543 | 75 | 360 | 15.0 | 25.0 | 0.00 | 0.00 | 0.00 | 71 | 929.5 |
| 20260904155048 | 73 | 360 | 14.0 | 21.0 | 0.00 | 0.00 | 0.00 | 76 | 929.5 |
| 20260904154543 | 72 | 360 | 15.0 | 21.0 | 0.00 | 0.00 | 0.00 | 77 | 929.6 |
| 20260904154039 | 72 | 107 | 14.0 | 20.0 | 0.00 | 0.00 | 0.00 | 79 | 929.6 |
| 20260904153538 | 71 | 360 | 12.0 | 20.0 | 0.00 | 0.00 | 0.00 | 80 | 929.7 |
| 20260904153045 | 71 | 360 | 13.0 | 21.0 | 0.00 | 0.00 | 0.00 | 80 | 929.7 |
| 20260904152041 | 70 | 360 | 13.0 | 20.0 | 0.00 | 0.00 | 0.00 | 82 | 929.8 |
| 20260904151538 | 69 | 360 | 14.0 | 19.0 | 0.00 | 0.00 | 0.00 | 82 | 929.8 |
| 20260904151040 | 69 | 360 | 13.0 | 20.0 | 0.00 | 0.00 | 0.00 | 82 | 930.0 |
| 20260904150536 | 69 | 360 | 14.0 | 19.0 | 0.00 | 0.00 | 0.00 | 83 | 929.7 |
| 20260904150039 | 68 | 360 | 13.0 | 20.0 | 0.00 | 0.00 | 0.00 | 84 | 929.8 |
| 20260904145534 | 68 | 360 | 13.0 | 20.0 | 0.00 | 0.00 | 0.00 | 84 | 929.8 |
| 20260904145033 | 68 | 360 | 12.0 | 18.0 | 0.00 | 0.00 | 0.00 | 85 | 929.9 |
| 20260904144535 | 68 | 360 | 13.0 | 18.0 | 0.00 | 0.00 | 0.00 | 85 | 929.9 |
| 20260904144031 | 67 | 360 | 11.0 | 18.0 | 0.00 | 0.00 | 0.00 | 86 | 930.0 |
| 20260904143530 | 67 | 360 | 11.0 | 18.0 | 0.00 | 0.00 | 0.00 | 87 | 929.9 |
| 20260904143031 | 66 | 360 | 10.0 | 16.0 | 0.00 | 0.00 | 0.00 | 87 | 929.9 |
| 20260904142058 | 66 | 360 | 11.0 | 15.0 | 0.00 | 0.00 | 0.00 | 88 | 930.0 |
| 20260904141559 | 66 | 360 | 9.0 | 16.0 | 0.00 | 0.00 | 0.00 | 89 | 930.0 |
| 20260904141056 | 65 | 360 | 10.0 | 16.0 | 0.00 | 0.00 | 0.00 | 89 | 930.1 |
| 20260904140555 | 65 | 360 | 8.0 | 13.0 | 0.00 | 0.00 | 0.00 | 91 | 930.1 |
| 20260904140054 | 65 | 360 | 9.0 | 13.0 | 0.00 | 0.00 | 0.00 | 92 | 930.1 |
| 20260904135554 | 64 | 125 | 6.0 | 10.0 | 0.00 | 0.00 | 0.00 | 93 | 930.1 |
| 20260904135050 | 64 | 115 | 6.0 | 9.0 | 0.00 | 0.00 | 0.00 | 93 | 930.1 |
| 20260904134550 | 63 | 360 | 6.0 | 10.0 | 0.00 | 0.00 | 0.00 | 94 | 930.1 |
| 20260904134055 | 63 | 360 | 7.0 | 11.0 | 0.00 | 0.00 | 0.00 | 94 | 930.0 |
| 20260904133549 | 62 | 119 | 8.0 | 11.0 | 0.00 | 0.00 | 0.00 | 94 | 929.9 |
| 20260904133057 | 62 | 360 | 8.0 | 11.0 | 0.00 | 0.00 | 0.00 | 94 | 930.0 |
| 20260904132018 | 61 | 360 | 7.0 | 10.0 | 0.00 | 0.00 | 0.00 | 95 | 930.0 |
| 20260904131517 | 61 | 360 | 6.0 | 13.0 | 0.00 | 0.00 | 0.00 | 95 | 930.0 |
| 20260904131017 | 60 | 360 | 7.0 | 13.0 | 0.00 | 0.00 | 0.00 | 95 | 929.9 |
| 20260904130521 | 60 | 360 | 7.0 | 11.0 | 0.00 | 0.00 | 0.00 | 95 | 929.8 |
| 20260904130016 | 60 | 360 | 8.0 | 11.0 | 0.00 | 0.00 | 0.00 | 95 | 929.9 |
| 20260904125516 | 59 | 360 | 7.0 | 10.0 | 0.00 | 0.00 | 0.00 | 95 | 929.8 |
| 20260904125019 | 59 | 360 | 7.0 | 9.0 | 0.00 | 0.00 | 0.00 | 95 | 929.8 |
| 20260904124616 | 59 | 360 | 7.0 | 9.0 | 0.00 | 0.00 | 0.00 | 95 | 929.7 |
| 20260904124016 | 58 | 360 | 6.0 | 8.0 | 0.00 | 0.00 | 0.00 | 94 | 929.8 |
| 20260904123519 | 58 | 360 | 6.0 | 8.0 | 0.00 | 0.00 | 0.00 | 94 | 929.8 |
| 20260904123015 | 58 | 360 | 5.0 | 8.0 | 0.00 | 0.00 | 0.00 | 94 | 929.8 |
| 20260904122016 | 58 | 360 | 6.0 | 10.0 | 0.00 | 0.00 | 0.00 | 94 | 929.8 |
| 20260904121516 | 58 | 360 | 7.0 | 10.0 | 0.00 | 0.00 | 0.00 | 94 | 929.8 |
| 20260904121018 | 58 | 360 | 6.0 | 9.0 | 0.00 | 0.00 | 0.00 | 94 | 929.8 |
| 20260904120514 | 58 | 360 | 6.0 | 10.0 | 0.00 | 0.00 | 0.00 | 94 | 929.7 |
| 20260904120014 | 58 | 360 | 7.0 | 11.0 | 0.00 | 0.00 | 0.00 | 94 | 929.8 |
| 20260904115514 | 58 | 360 | 7.0 | 11.0 | 0.00 | 0.00 | 0.00 | 94 | 929.9 |
| 20260904115014 | 58 | 360 | 8.0 | 11.0 | 0.00 | 0.00 | 0.00 | 94 | 929.8 |
| 20260904114514 | 58 | 360 | 8.0 | 11.0 | 0.00 | 0.00 | 0.00 | 94 | 929.8 |
| 20260904114013 | 58 | 360 | 8.0 | 11.0 | 0.00 | 0.00 | 0.00 | 93 | 929.9 |
| 20260904113513 | 58 | 360 | 9.0 | 13.0 | 0.00 | 0.00 | 0.00 | 93 | 929.9 |
| 20260904113018 | 59 | 360 | 9.0 | 13.0 | 0.00 | 0.00 | 0.00 | 94 | 929.8 |
| 20260904112010 | 58 | 360 | 8.0 | 11.0 | 0.00 | 0.00 | 0.00 | 94 | 929.7 |
| 20260904111511 | 58 | 360 | 8.0 | 11.0 | 0.00 | 0.00 | 0.00 | 93 | 929.6 |
| 20260904111011 | 58 | 360 | 7.0 | 11.0 | 0.00 | 0.00 | 0.00 | 93 | 929.7 |
| 20260904110509 | 58 | 360 | 8.0 | 11.0 | 0.00 | 0.00 | 0.00 | 93 | 929.8 |
| 20260904110020 | 58 | 360 | 8.0 | 11.0 | 0.00 | 0.00 | 0.00 | 93 | 929.8 |
| 20260904105508 | 58 | 360 | 7.0 | 10.0 | 0.00 | 0.00 | 0.00 | 93 | 929.9 |
| 20260904105008 | 59 | 360 | 8.0 | 10.0 | 0.00 | 0.00 | 0.00 | 92 | 929.9 |
| 20260904104506 | 59 | 360 | 7.0 | 10.0 | 0.00 | 0.00 | 0.00 | 92 | 929.9 |
| 20260904104004 | 59 | 360 | 7.0 | 9.0 | 0.00 | 0.00 | 0.00 | 92 | 930.0 |
| 20260904103503 | 59 | 360 | 7.0 | 9.0 | 0.00 | 0.00 | 0.00 | 92 | 929.9 |
| 20260904103003 | 59 | 360 | 7.0 | 10.0 | 0.00 | 0.00 | 0.00 | 91 | 930.0 |
| 20260904102004 | 60 | 360 | 7.0 | 11.0 | 0.00 | 0.00 | 0.00 | 91 | 930.0 |
| 20260904101503 | 60 | 360 | 8.0 | 12.0 | 0.00 | 0.00 | 0.00 | 91 | 930.0 |
| 20260904101002 | 60 | 360 | 9.0 | 12.0 | 0.00 | 0.00 | 0.00 | 91 | 930.0 |
| 20260904100504 | 60 | 360 | 7.0 | 10.0 | 0.00 | 0.00 | 0.00 | 90 | 930.0 |
| 20260904095559 | 61 | 360 | 7.0 | 10.0 | 0.00 | 0.00 | 0.00 | 89 | 930.0 |
| 20260904095100 | 61 | 360 | 7.0 | 10.0 | 0.00 | 0.00 | 0.00 | 89 | 929.9 |
| 20260904094557 | 61 | 360 | 7.0 | 11.0 | 0.00 | 0.00 | 0.00 | 89 | 929.9 |
| 20260904094056 | 62 | 360 | 8.0 | 11.0 | 0.00 | 0.00 | 0.00 | 89 | 930.0 |
| 20260904093556 | 62 | 360 | 8.0 | 11.0 | 0.00 | 0.00 | 0.00 | 89 | 929.9 |
| 20260904093113 | 62 | 360 | 8.0 | 13.0 | 0.00 | 0.00 | 0.00 | 88 | 929.9 |
| 20260904092655 | 62 | 360 | 9.0 | 12.0 | 0.00 | 0.00 | 0.00 | 88 | 929.9 |
| 20260904092057 | 62 | 360 | 9.0 | 12.0 | 0.00 | 0.00 | 0.00 | 88 | 929.9 |
| 20260904091554 | 62 | 360 | 8.0 | 11.0 | 0.00 | 0.00 | 0.00 | 87 | 929.9 |
| 20260904091054 | 62 | 360 | 8.0 | 10.0 | 0.00 | 0.00 | 0.00 | 87 | 929.9 |
| 20260904090553 | 62 | 360 | 7.0 | 10.0 | 0.00 | 0.00 | 0.00 | 87 | 930.0 |
| 20260904090054 | 62 | 360 | 7.0 | 10.0 | 0.00 | 0.00 | 0.00 | 87 | 930.0 |
| 20260904085653 | 62 | 360 | 6.0 | 10.0 | 0.00 | 0.00 | 0.00 | 87 | 930.0 |
| 20260904085052 | 62 | 360 | 8.0 | 10.0 | 0.00 | 0.00 | 0.00 | 87 | 930.0 |
| 20260904084552 | 62 | 360 | 8.0 | 10.0 | 0.00 | 0.00 | 0.00 | 87 | 930.0 |
| 20260904084056 | 62 | 360 | 7.0 | 10.0 | 0.00 | 0.00 | 0.00 | 87 | 930.0 |
| 20260904083551 | 62 | 360 | 7.0 | 10.0 | 0.00 | 0.00 | 0.00 | 87 | 930.0 |
| 20260904083053 | 61 | 360 | 7.0 | 10.0 | 0.00 | 0.00 | 0.00 | 86 | 930.0 |
| 20260904082652 | 62 | 360 | 5.0 | 7.0 | 0.00 | 0.00 | 0.00 | 85 | 929.9 |
| 20260904082050 | 62 | 360 | 5.0 | 7.0 | 0.00 | 0.00 | 0.00 | 85 | 929.9 |
| 20260904081550 | 62 | 360 | 5.0 | 8.0 | 0.00 | 0.00 | 0.00 | 85 | 929.9 |
| 20260904081054 | 62 | 360 | 6.0 | 10.0 | 0.00 | 0.00 | 0.00 | 85 | 930.0 |
| 20260904080550 | 62 | 360 | 7.0 | 10.0 | 0.00 | 0.00 | 0.00 | 84 | 930.0 |
| 20260904080051 | 62 | 360 | 8.0 | 10.0 | 0.00 | 0.00 | 0.00 | 84 | 930.1 |
| 20260904075547 | 62 | 360 | 6.0 | 8.0 | 0.00 | 0.00 | 0.00 | 84 | 930.1 |
| 20260904075050 | 63 | 360 | 5.0 | 8.0 | 0.00 | 0.00 | 0.00 | 83 | 930.0 |
| 20260904074549 | 63 | 360 | 6.0 | 8.0 | 0.00 | 0.00 | 0.00 | 82 | 930.1 |
| 20260904074047 | 63 | 360 | 5.0 | 9.0 | 0.00 | 0.00 | 0.00 | 82 | 930.1 |
| 20260904073548 | 63 | 360 | 6.0 | 9.0 | 0.00 | 0.00 | 0.00 | 82 | 930.0 |
| 20260904073046 | 63 | 360 | 7.0 | 9.0 | 0.00 | 0.00 | 0.00 | 83 | 930.1 |
| 20260904072546 | 62 | 360 | 6.0 | 8.0 | 0.00 | 0.00 | 0.00 | 83 | 930.1 |
| 20260904072048 | 62 | 360 | 6.0 | 8.0 | 0.00 | 0.00 | 0.00 | 83 | 930.0 |
| 20260904071546 | 62 | 360 | 4.0 | 7.0 | 0.00 | 0.00 | 0.00 | 81 | 929.9 |
| 20260904071043 | 62 | 360 | 3.0 | 6.0 | 0.00 | 0.00 | 0.00 | 80 | 929.8 |
| 20260904070545 | 63 | 360 | 4.0 | 8.0 | 0.00 | 0.00 | 0.00 | 81 | 929.8 |
| 20260904070047 | 63 | 360 | 5.0 | 9.0 | 0.00 | 0.00 | 0.00 | 81 | 929.9 |
| 20260904065542 | 62 | 360 | 6.0 | 8.0 | 0.00 | 0.00 | 0.00 | 80 | 930.0 |
| 20260904065044 | 62 | 360 | 5.0 | 7.0 | 0.00 | 0.00 | 0.00 | 79 | 929.9 |
| 20260904064545 | 63 | 360 | 5.0 | 7.0 | 0.00 | 0.00 | 0.00 | 79 | 929.8 |
| 20260904064042 | 63 | 360 | 6.0 | 8.0 | 0.00 | 0.00 | 0.00 | 79 | 929.9 |
| 20260904063543 | 63 | 360 | 5.0 | 8.0 | 0.00 | 0.00 | 0.00 | 78 | 929.7 |
| 20260904063038 | 63 | 360 | 5.0 | 9.0 | 0.00 | 0.00 | 0.00 | 77 | 929.9 |
| 20260904062637 | 63 | 360 | 5.0 | 7.0 | 0.00 | 0.00 | 0.00 | 75 | 929.8 |
| 20260904062036 | 63 | 360 | 4.0 | 6.0 | 0.00 | 0.00 | 0.00 | 75 | 929.7 |
| 20260904061547 | 63 | 360 | 3.0 | 7.0 | 0.00 | 0.00 | 0.00 | 74 | 929.6 |
| 20260904061036 | 63 | 360 | 5.0 | 7.0 | 0.00 | 0.00 | 0.00 | 73 | 929.7 |
| 20260904060535 | 63 | 360 | 4.0 | 7.0 | 0.00 | 0.00 | 0.00 | 71 | 929.6 |
| 20260904060036 | 63 | 360 | 5.0 | 8.0 | 0.00 | 0.00 | 0.00 | 71 | 929.5 |
| 20260904055534 | 63 | 360 | 6.0 | 8.0 | 0.00 | 0.00 | 0.00 | 70 | 929.6 |
| 20260904055034 | 64 | 360 | 5.0 | 8.0 | 0.00 | 0.00 | 0.00 | 68 | 929.6 |
| 20260904054535 | 64 | 360 | 5.0 | 8.0 | 0.00 | 0.00 | 0.00 | 67 | 929.6 |
| 20260904054034 | 64 | 360 | 6.0 | 8.0 | 0.00 | 0.00 | 0.00 | 64 | 929.6 |
| 20260904053534 | 65 | 360 | 6.0 | 7.0 | 0.00 | 0.00 | 0.00 | 63 | 929.7 |
| 20260904053035 | 65 | 360 | 3.0 | 10.0 | 0.00 | 0.00 | 0.00 | 61 | 929.6 |
| 20260904052037 | 66 | 360 | 7.0 | 12.0 | 0.00 | 0.00 | 0.00 | 58 | 929.7 |
| 20260904051543 | 66 | 360 | 5.0 | 8.0 | 0.00 | 0.00 | 0.00 | 58 | 929.6 |
| 20260904051037 | 67 | 360 | 5.0 | 11.0 | 0.00 | 0.00 | 0.00 | 56 | 929.6 |
| 20260904050538 | 67 | 360 | 5.0 | 10.0 | 0.00 | 0.00 | 0.00 | 53 | 929.6 |
| 20260904050037 | 68 | 360 | 6.0 | 11.0 | 0.00 | 0.00 | 0.00 | 52 | 929.6 |
| 20260904045535 | 67 | 360 | 6.0 | 11.0 | 0.00 | 0.00 | 0.00 | 57 | 929.6 |
| 20260904045035 | 66 | 360 | 5.0 | 10.0 | 0.00 | 0.00 | 0.00 | 51 | 929.5 |
| 20260904044536 | 67 | 360 | 6.0 | 10.0 | 0.00 | 0.00 | 0.00 | 46 | 929.4 |
| 20260904044034 | 67 | 360 | 2.0 | 5.0 | 0.00 | 0.00 | 0.00 | 47 | 929.4 |
| 20260904043534 | 66 | 360 | 2.0 | 7.0 | 0.00 | 0.00 | 0.00 | 47 | 929.1 |
| 20260904043134 | 66 | 360 | 3.0 | 7.0 | 0.00 | 0.00 | 0.00 | 47 | 929.0 |
| 20260904042031 | 65 | 360 | 2.0 | 6.0 | 0.00 | 0.00 | 0.00 | 48 | 929.0 |
| 20260904041531 | 65 | 360 | 4.0 | 6.0 | 0.00 | 0.00 | 0.00 | 48 | 928.9 |
| 20260904041031 | 65 | 360 | 2.0 | 5.0 | 0.00 | 0.00 | 0.00 | 48 | 929.1 |
| 20260904040531 | 65 | 360 | 2.0 | 6.0 | 0.00 | 0.00 | 0.00 | 48 | 929.2 |
| 20260904040031 | 65 | 360 | 4.0 | 6.0 | 0.00 | 0.00 | 0.00 | 48 | 929.2 |
| 20260904035531 | 65 | 360 | 4.0 | 5.0 | 0.00 | 0.00 | 0.00 | 48 | 929.2 |
| 20260904035031 | 66 | 360 | 2.0 | 6.0 | 0.00 | 0.00 | 0.00 | 48 | 929.3 |
| 20260904034545 | 66 | 360 | 3.0 | 6.0 | 0.00 | 0.00 | 0.00 | 47 | 929.4 |
| 20260904034130 | 66 | 360 | 1.0 | 4.0 | 0.00 | 0.00 | 0.00 | 47 | 929.4 |
| 20260904033529 | 66 | 360 | 0.0 | 2.0 | 0.00 | 0.00 | 0.00 | 48 | 929.4 |
| 20260904033028 | 65 | 360 | 0.0 | 4.0 | 0.00 | 0.00 | 0.00 | 48 | 929.3 |
| 20260904032628 | 65 | 360 | 3.0 | 5.0 | 0.00 | 0.00 | 0.00 | 49 | 929.2 |
| 20260904032028 | 65 | 360 | 3.0 | 5.0 | 0.00 | 0.00 | 0.00 | 49 | 929.3 |
| 20260904031528 | 65 | 360 | 4.0 | 6.0 | 0.00 | 0.00 | 0.00 | 49 | 929.3 |
| 20260904031027 | 65 | 360 | 3.0 | 6.0 | 0.00 | 0.00 | 0.00 | 48 | 929.2 |
| 20260904030527 | 66 | 360 | 3.0 | 6.0 | 0.00 | 0.00 | 0.00 | 48 | 929.4 |
| 20260904030027 | 66 | 360 | 3.0 | 6.0 | 0.00 | 0.00 | 0.00 | 48 | 929.3 |
| 20260904025527 | 67 | 360 | 3.0 | 5.0 | 0.00 | 0.00 | 0.00 | 48 | 929.3 |
| 20260904025026 | 67 | 360 | 1.0 | 5.0 | 0.00 | 0.00 | 0.00 | 47 | 929.4 |
| 20260904024526 | 67 | 360 | 0.0 | 6.0 | 0.00 | 0.00 | 0.00 | 47 | 929.4 |
| 20260904024026 | 67 | 360 | 4.0 | 6.0 | 0.00 | 0.00 | 0.00 | 48 | 929.4 |
| 20260904023525 | 67 | 360 | 2.0 | 5.0 | 0.00 | 0.00 | 0.00 | 48 | 929.4 |
| 20260904023025 | 68 | 360 | 2.0 | 5.0 | 0.00 | 0.00 | 0.00 | 49 | 929.3 |
| 20260904022625 | 69 | 348 | 1.0 | 5.0 | 0.00 | 0.00 | 0.00 | 49 | 929.4 |
| 20260904022028 | 69 | 348 | 2.0 | 5.0 | 0.00 | 0.00 | 0.00 | 49 | 929.2 |
| 20260904021524 | 70 | 360 | 0.0 | 2.0 | 0.00 | 0.00 | 0.00 | 49 | 929.1 |
| 20260904021026 | 70 | 360 | 0.0 | 4.0 | 0.00 | 0.00 | 0.00 | 47 | 929.1 |
| 20260904020523 | 71 | 360 | 1.0 | 6.0 | 0.00 | 0.00 | 0.00 | 46 | 929.0 |
| 20260904020024 | 72 | 360 | 3.0 | 6.0 | 0.00 | 0.00 | 0.00 | 47 | 929.0 |
| 20260904015527 | 72 | 360 | 2.0 | 3.0 | 0.00 | 0.00 | 0.00 | 50 | 929.0 |
| 20260904015022 | 73 | 360 | 1.0 | 6.0 | 0.00 | 0.00 | 0.00 | 51 | 928.8 |
| 20260904014522 | 74 | 360 | 2.0 | 6.0 | 0.00 | 0.00 | 0.00 | 49 | 928.6 |
| 20260904014021 | 75 | 360 | 0.0 | 0.0 | 0.00 | 0.00 | 0.00 | 55 | 928.7 |
| 20260904013520 | 75 | 5 | 0.0 | 2.0 | 0.00 | 0.00 | 0.00 | 54 | 928.4 |
| 20260904013020 | 75 | 5 | 0.0 | 5.0 | 0.00 | 0.00 | 0.00 | 53 | 928.5 |
| 20260904012620 | 76 | 5 | 1.0 | 4.0 | 0.00 | 0.00 | 0.00 | 51 | 928.3 |
| 20260904012019 | 76 | 329 | 1.0 | 3.0 | 0.00 | 0.00 | 0.00 | 51 | 928.4 |
| 20260904011552 | 77 | 329 | 1.0 | 7.0 | 0.00 | 0.00 | 0.00 | 44 | 928.3 |
| 20260904011019 | 78 | 326 | 4.0 | 7.0 | 0.00 | 0.00 | 0.00 | 39 | 928.2 |
| 20260904010519 | 79 | 304 | 3.0 | 5.0 | 0.00 | 0.00 | 0.00 | 39 | 928.1 |
| 20260904010021 | 81 | 299 | 1.0 | 5.0 | 0.00 | 0.00 | 0.00 | 36 | 928.1 |
| 20260904005524 | 81 | 299 | 3.0 | 9.0 | 0.00 | 0.00 | 0.00 | 36 | 928.1 |
| 20260904005018 | 82 | 298 | 5.0 | 9.0 | 0.00 | 0.00 | 0.00 | 35 | 928.0 |
| 20260904004518 | 82 | 290 | 5.0 | 10.0 | 0.00 | 0.00 | 0.00 | 34 | 927.9 |
| 20260904004021 | 83 | 286 | 7.0 | 12.0 | 0.00 | 0.00 | 0.00 | 33 | 927.9 |
| 20260904003525 | 84 | 309 | 7.0 | 12.0 | 0.00 | 0.00 | 0.00 | 32 | 927.8 |
| 20260904003017 | 84 | 329 | 2.0 | 13.0 | 0.00 | 0.00 | 0.00 | 33 | 927.7 |
| 20260904002617 | 85 | 306 | 7.0 | 13.0 | 0.00 | 0.00 | 0.00 | 32 | 927.6 |
| 20260904002018 | 85 | 360 | 6.0 | 11.0 | 0.00 | 0.00 | 0.00 | 33 | 927.5 |
| 20260904001517 | 85 | 326 | 2.0 | 6.0 | 0.00 | 0.00 | 0.00 | 32 | 927.5 |
| 20260904001016 | 85 | 32 | 1.0 | 6.0 | 0.00 | 0.00 | 0.00 | 32 | 927.5 |
| 20260904000517 | 85 | 38 | 3.0 | 7.0 | 0.00 | 0.00 | 0.00 | 33 | 927.4 |
| 20260904000030 | 85 | 39 | 4.0 | 7.0 | 0.00 | 0.00 | 0.00 | 33 | 927.4 |
| 20260903235517 | 84 | 342 | 2.0 | 8.0 | 0.00 | 0.00 | 0.00 | 33 | 927.3 |
| 20260903235017 | 83 | 339 | 6.0 | 8.0 | 0.00 | 0.00 | 0.00 | 34 | 927.4 |
| 20260903234529 | 82 | 313 | 2.0 | 6.0 | 0.00 | 0.00 | 0.00 | 37 | 927.5 |
| 20260903234016 | 82 | 313 | 3.0 | 6.0 | 0.00 | 0.00 | 0.00 | 36 | 927.4 |
| 20260903233519 | 83 | 304 | 3.0 | 5.0 | 0.00 | 0.00 | 0.00 | 37 | 927.4 |
| 20260903233020 | 84 | 279 | 1.0 | 5.0 | 0.00 | 0.00 | 0.00 | 36 | 927.3 |
| 20260903232616 | 84 | 277 | 0.0 | 1.0 | 0.00 | 0.00 | 0.00 | 32 | 927.3 |
| 20260903232016 | 84 | 277 | 0.0 | 2.0 | 0.00 | 0.00 | 0.00 | 31 | 927.3 |
| 20260903231516 | 84 | 277 | 0.0 | 5.0 | 0.00 | 0.00 | 0.00 | 32 | 927.3 |